UAE8X OMDB-EDDF

Flight info

Callsign UAE8X
Flight time N/A
Altitude 33000
Route ANVIX L223 TARDI N629 BOTAM Y855 LAKLU/N0491F340 Q204 NALKI G652 TOKRA DCT ALROK DCT BOSOB DCT ITRUX Y511 PMA Z712 WEJ L677 GESON Q777 LAGVI/N0477F360 Q777 RASDA DCT OTHON DCT VAXOS DCT RDS UL609 MES DCT EVIVI DCT OKANA DCT BABIT DCT ARSIN DCT SUBEN T161 DEBHI DEBHI1C
Aircraft B77W/H-SDE1E2E3FGHIJ2J3J4J5M1RWXY/LB1D1

Departure

Time 2026-04-23 08:54
Airport Dubai International Airport (OMDB)

Arrival

Time N/A
Airport Frankfurt Main Airport (EDDF)
Time Latitude Longitude Altitude Speed Heading
2026-04-23 08:54 25.20530 55.16819 6080 ft 247 kts 176°
2026-04-23 08:54 25.18856 55.17283 6407 ft 256 kts 150°
2026-04-23 08:54 25.17587 55.18741 6599 ft 277 kts 120°
2026-04-23 08:55 25.16722 55.20691 6847 ft 288 kts 119°
2026-04-23 08:55 25.15801 55.22682 7332 ft 294 kts 120°
2026-04-23 08:55 25.14846 55.24689 7938 ft 296 kts 120°
2026-04-23 08:55 25.13885 55.26697 8542 ft 297 kts 120°
2026-04-23 08:56 25.12912 55.28729 9074 ft 302 kts 120°
2026-04-23 08:56 25.11924 55.30787 9637 ft 305 kts 120°
2026-04-23 08:56 25.10924 55.32864 10179 ft 307 kts 120°
2026-04-23 08:56 25.09983 55.34980 10775 ft 309 kts 117°
2026-04-23 08:57 25.09104 55.37155 11427 ft 310 kts 117°
2026-04-23 08:57 25.08223 55.39331 12115 ft 311 kts 117°
2026-04-23 08:57 25.07334 55.41506 12840 ft 312 kts 118°
2026-04-23 08:57 25.06454 55.43738 13334 ft 326 kts 117°
2026-04-23 08:58 25.05541 55.46120 13490 ft 348 kts 116°
2026-04-23 08:58 25.04582 55.48633 13667 ft 369 kts 116°
2026-04-23 08:58 25.03553 55.51315 13811 ft 390 kts 116°
2026-04-23 08:58 25.02461 55.54149 14181 ft 402 kts 116°
2026-04-23 08:59 25.01292 55.56971 14691 ft 407 kts 121°
2026-04-23 08:59 24.99877 55.59636 15325 ft 409 kts 125°
2026-04-23 08:59 24.98347 55.62282 16038 ft 411 kts 125°
2026-04-23 08:59 24.96826 55.64964 16715 ft 414 kts 124°
2026-04-23 09:00 24.95326 55.67699 17356 ft 419 kts 124°
2026-04-23 09:00 24.93815 55.70466 17984 ft 423 kts 125°
2026-04-23 09:00 24.92144 55.73150 18536 ft 426 kts 129°
2026-04-23 09:00 24.90358 55.75771 19072 ft 430 kts 130°
2026-04-23 09:01 24.88536 55.78412 19581 ft 435 kts 130°
2026-04-23 09:01 24.86717 55.81102 20070 ft 441 kts 129°
2026-04-23 09:01 24.84892 55.83843 20549 ft 447 kts 129°
2026-04-23 09:01 24.83049 55.86617 21047 ft 451 kts 129°